TimeEDT,TemperatureF,Dew PointF,Humidity,Sea Level PressureIn,VisibilityMPH,Wind Direction,Wind SpeedMPH,Gust SpeedMPH,PrecipitationIn,Events,Conditions,WindDirDegrees,DateUTC
12:15 AM,71.6,71.6,100,29.95,10.0,Calm,Calm,-,N/A,,Mostly Cloudy,0,2013-09-12 04:15:00
12:35 AM,71.6,71.6,100,29.95,10.0,Calm,Calm,-,N/A,,Overcast,0,2013-09-12 04:35:00
12:56 AM,71.6,71.6,100,29.94,10.0,Calm,Calm,-,N/A,,Mostly Cloudy,0,2013-09-12 04:56:00
1:16 AM,71.6,71.6,100,29.94,10.0,Calm,Calm,-,N/A,,Scattered Clouds,0,2013-09-12 05:16:00
1:36 AM,71.6,69.8,94,29.94,10.0,Calm,Calm,-,N/A,,Mostly Cloudy,0,2013-09-12 05:36:00
1:56 AM,71.6,69.8,94,29.94,10.0,Calm,Calm,-,N/A,Rain,Light Rain,0,2013-09-12 05:56:00
2:16 AM,71.6,69.8,94,29.93,10.0,SW,3.5,-,N/A,,Clear,230,2013-09-12 06:16:00
2:36 AM,71.6,69.8,94,29.93,10.0,WSW,4.6,-,N/A,,Clear,250,2013-09-12 06:36:00
2:56 AM,71.6,69.8,94,29.93,10.0,West,5.8,-,N/A,,Clear,270,2013-09-12 06:56:00
3:16 AM,71.6,69.8,94,29.93,10.0,West,5.8,-,N/A,,Scattered Clouds,270,2013-09-12 07:16:00
3:36 AM,71.6,69.8,94,29.92,10.0,West,4.6,-,N/A,,Mostly Cloudy,260,2013-09-12 07:36:00
3:56 AM,71.6,69.8,94,29.92,7.0,WSW,4.6,-,N/A,,Mostly Cloudy,250,2013-09-12 07:56:00
4:12 AM,71.6,69.8,94,29.93,10.0,West,4.6,-,N/A,,Overcast,260,2013-09-12 08:12:00
4:32 AM,71.6,69.8,94,29.92,10.0,WSW,4.6,-,N/A,,Overcast,240,2013-09-12 08:32:00
4:52 AM,71.6,69.8,94,29.92,10.0,WSW,5.8,-,N/A,,Overcast,250,2013-09-12 08:52:00
5:12 AM,71.6,69.8,94,29.92,10.0,WSW,5.8,-,N/A,,Mostly Cloudy,240,2013-09-12 09:12:00
5:32 AM,73.4,69.8,88,29.91,10.0,WSW,6.9,-,N/A,,Scattered Clouds,250,2013-09-12 09:32:00
5:52 AM,73.4,69.8,88,29.91,10.0,WSW,8.1,-,N/A,,Mostly Cloudy,240,2013-09-12 09:52:00
6:12 AM,71.6,69.8,94,29.91,7.0,WSW,4.6,-,N/A,,Mostly Cloudy,240,2013-09-12 10:12:00
6:32 AM,71.6,69.8,94,29.90,7.0,Calm,Calm,-,N/A,,Scattered Clouds,0,2013-09-12 10:32:00
6:52 AM,71.6,69.8,94,29.90,10.0,West,3.5,-,N/A,,Scattered Clouds,260,2013-09-12 10:52:00
7:12 AM,71.6,69.8,94,29.91,10.0,WSW,4.6,-,N/A,,Clear,250,2013-09-12 11:12:00
7:33 AM,71.6,69.8,94,29.91,10.0,WSW,4.6,-,N/A,,Clear,250,2013-09-12 11:33:00
7:53 AM,71.6,69.8,94,29.92,10.0,West,4.6,-,N/A,,Scattered Clouds,260,2013-09-12 11:53:00
8:13 AM,71.6,69.8,94,29.91,10.0,WSW,4.6,-,N/A,,Clear,240,2013-09-12 12:13:00
8:33 AM,71.6,69.8,94,29.91,10.0,SW,5.8,-,N/A,,Clear,230,2013-09-12 12:33:00
8:53 AM,71.6,69.8,94,29.90,10.0,WSW,6.9,-,N/A,,Clear,240,2013-09-12 12:53:00
9:13 AM,71.6,69.8,94,29.91,10.0,WSW,6.9,-,N/A,,Clear,250,2013-09-12 13:13:00
9:33 AM,71.6,69.8,94,29.91,10.0,West,4.6,-,N/A,,Mostly Cloudy,260,2013-09-12 13:33:00
9:53 AM,73.4,69.8,88,29.90,10.0,West,5.8,-,N/A,,Overcast,270,2013-09-12 13:53:00
10:13 AM,73.4,71.6,94,29.91,7.0,NW,6.9,-,N/A,,Mostly Cloudy,310,2013-09-12 14:13:00
10:33 AM,73.4,69.8,88,29.91,7.0,NW,5.8,9.2,N/A,,Overcast,310,2013-09-12 14:33:00
10:54 AM,73.4,69.8,88,29.91,7.0,NW,8.1,-,N/A,,Overcast,320,2013-09-12 14:54:00
11:14 AM,73.4,69.8,88,29.91,7.0,WNW,8.1,-,N/A,,Overcast,300,2013-09-12 15:14:00
11:34 AM,73.4,69.8,88,29.91,7.0,WNW,6.9,-,N/A,,Mostly Cloudy,300,2013-09-12 15:34:00
11:54 AM,73.4,68.0,83,29.91,10.0,NW,9.2,-,N/A,,Mostly Cloudy,310,2013-09-12 15:54:00
12:14 PM,73.4,66.2,78,29.91,10.0,NW,9.2,-,N/A,,Clear,310,2013-09-12 16:14:00
12:34 PM,73.4,66.2,78,29.92,10.0,NW,10.4,-,N/A,,Clear,320,2013-09-12 16:34:00
12:54 PM,73.4,64.4,73,29.92,10.0,NW,6.9,-,N/A,,Clear,320,2013-09-12 16:54:00
1:14 PM,73.4,66.2,78,29.92,10.0,NW,6.9,-,N/A,,Clear,310,2013-09-12 17:14:00
1:34 PM,75.2,62.6,65,29.91,10.0,WNW,6.9,-,N/A,,Clear,300,2013-09-12 17:34:00
1:54 PM,77.0,62.6,61,29.90,10.0,NW,8.1,-,N/A,,Clear,310,2013-09-12 17:54:00
2:15 PM,78.8,60.8,54,29.89,10.0,NW,8.1,-,N/A,,Clear,320,2013-09-12 18:15:00
2:35 PM,78.8,60.8,54,29.88,10.0,WNW,5.8,-,N/A,,Clear,300,2013-09-12 18:35:00
2:55 PM,78.8,57.2,47,29.88,10.0,NNW,9.2,-,N/A,,Clear,340,2013-09-12 18:55:00
3:15 PM,80.6,59.0,48,29.86,10.0,WNW,5.8,-,N/A,,Clear,300,2013-09-12 19:15:00
3:35 PM,80.6,57.2,45,29.86,10.0,WNW,9.2,-,N/A,,Clear,300,2013-09-12 19:35:00
3:55 PM,80.6,55.4,42,29.85,10.0,NNW,11.5,18.4,N/A,,Clear,330,2013-09-12 19:55:00
4:15 PM,80.6,57.2,45,29.85,10.0,NW,9.2,-,N/A,,Clear,320,2013-09-12 20:15:00
4:35 PM,80.6,57.2,45,29.85,10.0,NNW,9.2,-,N/A,,Scattered Clouds,340,2013-09-12 20:35:00
4:55 PM,78.8,57.2,47,29.84,10.0,North,8.1,-,N/A,,Mostly Cloudy,350,2013-09-12 20:55:00
5:16 PM,80.6,57.2,45,29.83,10.0,North,9.2,-,N/A,,Mostly Cloudy,350,2013-09-12 21:16:00
5:36 PM,80.6,57.2,45,29.83,10.0,North,11.5,16.1,N/A,,Mostly Cloudy,350,2013-09-12 21:36:00
5:56 PM,78.8,57.2,47,29.84,10.0,North,5.8,10.4,N/A,,Mostly Cloudy,350,2013-09-12 21:56:00
6:16 PM,78.8,57.2,47,29.84,10.0,NNW,8.1,16.1,N/A,,Scattered Clouds,340,2013-09-12 22:16:00
6:36 PM,75.2,59.0,57,29.84,10.0,NNW,5.8,-,N/A,,Clear,330,2013-09-12 22:36:00
6:56 PM,73.4,60.8,65,29.85,10.0,NNW,4.6,-,N/A,,Clear,340,2013-09-12 22:56:00
7:16 PM,71.6,55.4,57,29.87,10.0,North,17.3,33.4,N/A,,Scattered Clouds,350,2013-09-12 23:16:00
7:36 PM,69.8,55.4,60,29.88,10.0,North,12.7,19.6,N/A,,Scattered Clouds,360,2013-09-12 23:36:00
7:56 PM,68.0,57.2,68,29.88,10.0,North,12.7,18.4,N/A,,Mostly Cloudy,350,2013-09-12 23:56:00
8:12 PM,66.2,57.2,73,29.88,10.0,North,15.0,18.4,N/A,,Mostly Cloudy,350,2013-09-13 00:12:00
8:32 PM,66.2,57.2,73,29.89,10.0,NNW,8.1,-,N/A,,Mostly Cloudy,330,2013-09-13 00:32:00
8:52 PM,66.2,57.2,73,29.90,10.0,North,12.7,20.7,N/A,,Scattered Clouds,350,2013-09-13 00:52:00
9:12 PM,64.4,57.2,77,29.92,10.0,NNW,8.1,-,N/A,,Scattered Clouds,340,2013-09-13 01:12:00
9:32 PM,64.4,57.2,77,29.92,10.0,North,6.9,-,N/A,,Clear,350,2013-09-13 01:32:00
9:52 PM,64.4,57.2,77,29.93,10.0,North,6.9,-,N/A,,Scattered Clouds,350,2013-09-13 01:52:00
10:12 PM,64.4,57.2,77,29.94,10.0,NNW,6.9,-,N/A,,Scattered Clouds,340,2013-09-13 02:12:00
10:32 PM,62.6,55.4,77,29.94,10.0,NNW,9.2,-,N/A,,Clear,340,2013-09-13 02:32:00
10:52 PM,62.6,55.4,77,29.94,10.0,North,9.2,-,N/A,,Clear,350,2013-09-13 02:52:00
11:13 PM,62.6,53.6,72,29.95,10.0,North,11.5,17.3,N/A,,Clear,350,2013-09-13 03:13:00
11:33 PM,60.8,51.8,72,29.95,10.0,NNW,6.9,-,N/A,,Clear,340,2013-09-13 03:33:00
11:53 PM,60.8,51.8,72,29.95,10.0,North,6.9,-,N/A,,Clear,350,2013-09-13 03:53:00